Find Starlink 36324

NORAD ID: 68091 Int'l Des: 2026-042 Owner: SPXS Country: US Constellation: starlink operational
LEOCIRCULAR

リアルタイム位置

3D地球を読み込み中...

Starlink 36324について

説明を読み込み中...

次回通過

Passes for default location (London). Set your location on the main map for personalized predictions.

高度履歴

Loading altitude history...

軌道要素

1 68091U 26042Y 26121.50002315 -.01871332 00000-0 -56983-1 0 9995
2 68091 53.1605 293.0501 0000854 97.0781 341.9750 15.36912417 5941
Epoch: May 1, 2026 • Age: 7 hours

現在のステータス

高度 467.0 km
速度 7.63 km/s
衛星直下点 -26.11°S, 120.66°E
打ち上げ日 Mar 4, 2026
運用期間 0.1 years
タイプ internet

技術仕様

分類 Payload
質量 575.00 kg
乾燥質量 530.00 kg
総質量 575.00 kg
長さ 0.30 m
直径 4.10 m
スパン 29.00 m
形状 Box + pan
製造者 SPXS
バスタイプ Starlink V2MO
フェーズステータス In Orbit
所有者/国 SPXS/US

Most Searched